Regional Weather Roundup
Issued by NWS

Home | Current Version | Previous Version | Graphics & Text | Print | Product List | Glossary On
Versions: 1 2 3 4 5 6 7 8 9 10 11 12 13 14 15 16 17 18 19 20 21 22 23 24 25 26 27 28 29 30 31 32 33 34 35 36 37 38 39 40 41 42 43 44 45 46 47 48 49 50
000
ASUS43 KLOT 151606
RWRIL

ILLINOIS REGIONAL WEATHER ROUNDUP
NATIONAL WEATHER SERVICE CHICAGO/ROMEOVILLE IL
1100 AM CDT TUE APR 15 2014

NOTE: "FAIR" INDICATES FEW OR NO CLOUDS BELOW 12,000 FEET WITH NO
SIGNIFICANT WEATHER AND/OR OBSTRUCTIONS TO VISIBILITY.

* THESE STATIONS ARE NOT UNDER NWS QUALITY CONTROL. THEY ALSO MAY NOT
  REPORT WEATHER SUCH AS PRECIPITATION OR FOG.

ILZ001-002-007-009-015-016-024-151700-
NORTHWEST ILLINOIS

CITY           SKY/WX    TMP DP  RH WIND       PRES   REMARKS
MOLINE         MOSUNNY   36  17  46 NW13G20   30.18R WCI  27
STERLING*      PTSUNNY   36  19  51 N6        30.16S WCI  31
SAVANNA*       PTSUNNY   34  13  42 W7        30.17R WCI  28
$$

ILZ003-004-008-010-011-017-018-151700-
NORTH CENTRAL ILLINOIS

CITY           SKY/WX    TMP DP  RH WIND       PRES   REMARKS
ROCKFORD       PTSUNNY   33  17  51 VRB6      30.16R WCI  28
FREEPORT*      PTSUNNY   34  21  59 NW7       30.16S WCI  28
ROCHELLE*      PTSUNNY   33  20  58 NW9       30.15S WCI  25
DE KALB*       SUNNY     28  15  57 NW8       30.15R WCI  20
PERU*          MOSUNNY   33  21  62 NW8       30.17R WCI  25
$$

ILZ005-006-012>014-019>023-151700-
NORTHEAST ILLINOIS

CITY           SKY/WX    TMP DP  RH WIND       PRES   REMARKS
CHICAGO-OHARE  MOSUNNY   32  11  41 N13       30.13R WCI  22
CHICAGO-MIDWAY MOSUNNY   33  14  45 N13       30.14R WCI  24
AURORA         MOSUNNY   32  19  58 N10       30.16R WCI  24
LANSING*       PTSUNNY   32  14  48 N10       30.15R WCI  23
WAUKEGAN       SUNNY     29  10  45 NW9       30.14R WCI  20
DUPAGE AIRPORT MOSUNNY   31  14  49 W13G23    30.14R WCI  21
KANKAKEE*        N/A     33  19  56 NW14      30.17R WCI  23
WHEELING       MOSUNNY   31  12  45 N13       30.15R WCI  21
MORRIS*        SUNNY     34  17  49 NW8       30.16R WCI  27
ROMEOVILLE*    PTSUNNY   32  16  53 N9G18     30.16R WCI  24
NORTHERLY ISL    N/A     31  15  52 N17         N/A  WCI  20
$$

LMZ740>746-151700-
SOUTHERN LAKE MICHIGAN

STATION/POSITION SKY/WX   TEMP    WIND        PRES    VSBY  WAVE
                          AIR SEA DIR/SP/G                  HT/PER
                          (F)     (DEG/KT/KT) (MB)    (MI)  (FT/S)
WAUKEGAN HARBOR            28     330/ 10/ 15 1022.0R
HARRISON CRIB              28     350/ 16/ 21   N/A
BURNHAM HARBOR             31     360/ 12/ 15   N/A
CALUMET HARBOR             30     340/  9/ 17 1021.3R
MICHIGAN CITY              29     330/ 20/ 25   N/A
$$

ILZ025>027-034>036-040-047-049-050-058-095>099-151700-
WEST-CENTRAL ILLINOIS

CITY           SKY/WX    TMP DP  RH WIND       PRES   REMARKS
QUINCY         SUNNY     38  19  46 NW14      30.21R WCI  30
GALESBURG*     MOSUNNY   35  22  58 NW16      30.18R WCI  25
MACOMB*        MOSUNNY   36  22  56 NW16G22   30.22R WCI  26
JACKSONVILLE*  MOSUNNY   38  20  49 NW13G20   30.21S WCI  30
PITTSFIELD*    MOSUNNY   38  21  49 NW15G21   30.22R WCI  30
$$

ILZ028>032-037-038-041>044-048-051>054-059>061-151700-
CENTRAL ILLINOIS

CITY           SKY/WX    TMP DP  RH WIND       PRES   REMARKS
PONTIAC        MOSUNNY   34  21  60 NW8       30.17R WCI  27
BLOOMINGTON    PTSUNNY   32  18  56 N13       30.17R WCI  22
DECATUR        CLOUDY    37  20  50 NW13      30.18R WCI  29
PEORIA         MOSUNNY   37  18  46 W13       30.18S WCI  29
LACON*         PTSUNNY   34  23  63 NW6       30.17R WCI  29
LINCOLN*       MOSUNNY   39  19  44 NW9G16    30.19S WCI  32
SPRINGFIELD    MOSUNNY   39  17  41 NW17      30.19F WCI  30
TAYLORVILLE    PTSUNNY   36  21  55 NW17G23   30.20S WCI  25
$$

ILZ033-039-045-046-055>057-062-063-151700-
EAST-CENTRAL ILLINOIS

CITY           SKY/WX    TMP DP  RH WIND       PRES   REMARKS
CHAMPAIGN      CLOUDY    36  22  56 N17G25    30.16R WCI  26
RANTOUL*       PTSUNNY   36  19  51 N14       30.17  WCI  27
MATTOON        CLOUDY    37  21  52 NW18      30.17R WCI  27
PARIS*         CLOUDY    36  21  54 NW13G18   30.17R WCI  27
$$

ILZ079-100>102-151700-
SOUTHWEST ILLINOIS

CITY           SKY/WX    TMP DP  RH WIND       PRES   REMARKS
ALTON          MOSUNNY   39  16  38 NW15G21   30.23R WCI  31
BELLEVILLE     SUNNY     41  17  38 N13G20    30.22R
CAHOKIA*       MOSUNNY   40  21  46 N14G21    30.23R
SPARTA*        SUNNY     39  21  48 NW10G17   30.24R WCI  32
$$

ILZ064>066-069>071-074>076-080>082-084>086-088>090-092>094-151700-
SOUTH-CENTRAL ILLINOIS

CITY           SKY/WX    TMP DP  RH WIND       PRES   REMARKS
CARBONDALE     MOSUNNY   40  20  44 N16G26    30.23R
CAIRO*         SUNNY     45  24  43 N17G24    30.23R
MARION         MOSUNNY  N/A N/A N/A N17G25    30.22S
MT. VERNON     PTSUNNY   37  16  41 NW7       30.21S WCI  32
CENTRALIA*       N/A     38  20  48 N14G25    30.21R WCI  30
SALEM*         MOSUNNY   40  25  55 N17G25    30.20S
METROPOLIS*    SUNNY     41  16  36 N15G22    30.20R
$$

ILZ067-068-072-073-078-083-087-091-151700-
SOUTHEAST ILLINOIS

CITY           SKY/WX    TMP DP  RH WIND       PRES   REMARKS
FLORA*         SUNNY     37  20  49 N15G22    30.20S WCI  28
FAIRFIELD*     PTSUNNY   39  23  52 NW12G18   30.20R WCI  32
HARRISBURG*    MOSUNNY   40  23  49 N18       30.22S
ROBINSON*      MOSUNNY   39  26  58 N17G24    30.19R WCI  30
CARMI*         MOSUNNY   41  28  58 N17G25    30.19R
$$

ABBREVIATIONS USED IN REMARKS
   TC - TEMPERATURE IN CELSIUS
  WCI - WIND CHILL INDEX
   HX - HEAT INDEX
  VSB - VISIBILITY
$$




USA.gov is the U.S. government's official web portal to all federal, state and local government web resources and services.